TimePDT,TemperatureF,Dew PointF,Humidity,Sea Level PressureIn,VisibilityMPH,Wind Direction,Wind SpeedMPH,Gust SpeedMPH,PrecipitationIn,Events,Conditions,WindDirDegrees,DateUTC
12:53 AM,37.9,32.0,79,30.11,10.0,Calm,Calm,-,N/A,,Clear,0,2013-04-12 07:53:00
1:53 AM,37.0,30.9,79,30.10,10.0,SSW,4.6,-,N/A,,Clear,200,2013-04-12 08:53:00
2:53 AM,33.1,28.9,85,30.09,10.0,Calm,Calm,-,N/A,,Clear,0,2013-04-12 09:53:00
3:53 AM,33.1,28.0,82,30.08,10.0,Calm,Calm,-,N/A,,Clear,0,2013-04-12 10:53:00
4:53 AM,30.9,27.0,85,30.09,10.0,ENE,3.5,-,N/A,,Clear,60,2013-04-12 11:53:00
5:53 AM,30.9,27.0,85,30.10,10.0,ENE,3.5,-,N/A,,Clear,70,2013-04-12 12:53:00
6:53 AM,30.9,28.0,89,30.11,10.0,Calm,Calm,-,N/A,,Clear,0,2013-04-12 13:53:00
7:53 AM,36.0,32.0,86,30.12,10.0,Calm,Calm,-,N/A,,Clear,0,2013-04-12 14:53:00
8:53 AM,43.0,35.1,74,30.10,10.0,Calm,Calm,-,N/A,,Clear,0,2013-04-12 15:53:00
9:53 AM,46.9,36.0,66,30.08,10.0,Calm,Calm,-,N/A,,Clear,0,2013-04-12 16:53:00
10:53 AM,52.0,36.0,54,30.07,10.0,Calm,Calm,-,N/A,,Clear,0,2013-04-12 17:53:00
11:53 AM,55.9,36.0,47,30.03,10.0,East,3.5,-,N/A,,Clear,80,2013-04-12 18:53:00
12:53 PM,60.1,36.0,41,30.00,10.0,Calm,Calm,-,N/A,,Clear,0,2013-04-12 19:53:00
1:53 PM,62.1,36.0,38,29.97,10.0,SSE,3.5,-,N/A,,Clear,160,2013-04-12 20:53:00
2:53 PM,66.0,32.0,28,29.95,10.0,Calm,Calm,-,N/A,,Clear,0,2013-04-12 21:53:00
3:53 PM,69.1,28.9,22,29.91,10.0,Calm,Calm,-,N/A,,Clear,0,2013-04-12 22:53:00
4:53 PM,72.0,26.1,18,29.88,10.0,NW,10.4,-,N/A,,Clear,320,2013-04-12 23:53:00
5:53 PM,70.0,36.0,29,29.88,10.0,NW,9.2,-,N/A,,Mostly Cloudy,310,2013-04-13 00:53:00
6:53 PM,64.9,37.9,37,29.88,10.0,NNW,9.2,-,N/A,,Overcast,330,2013-04-13 01:53:00
7:53 PM,61.0,34.0,36,29.89,10.0,NNW,10.4,-,N/A,,Mostly Cloudy,340,2013-04-13 02:53:00
8:53 PM,57.0,33.1,40,29.93,10.0,NNW,3.5,-,N/A,,Clear,340,2013-04-13 03:53:00
9:53 PM,55.9,33.1,42,29.94,10.0,Calm,Calm,-,N/A,,Clear,0,2013-04-13 04:53:00
10:53 PM,54.0,35.1,49,29.95,10.0,Calm,Calm,-,N/A,,Partly Cloudy,0,2013-04-13 05:53:00
11:53 PM,51.1,35.1,54,29.96,10.0,East,3.5,-,N/A,,Scattered Clouds,90,2013-04-13 06:53:00